| time (UTC) | temp C | wind direction | speed KPH | gust KPH | rain 1hr cm | rain 24hr cm | rain mn cm | humidity % | barometer mb |
| 20260903145818 | 26 | 177 | 4.8 | 17.7 | 0.00 | 0.74 | 0.74 | 81 | 1016.3 |
| 20260903145314 | 25 | 217 | 8.0 | 11.3 | 0.00 | 0.74 | 0.74 | 81 | 1016.4 |
| 20260903144813 | 25 | 148 | 3.2 | 6.4 | 0.00 | 0.74 | 0.74 | 83 | 1016.6 |
| 20260903144308 | 25 | 129 | 6.4 | 12.9 | 0.00 | 0.74 | 0.74 | 81 | 1016.6 |
| 20260903143804 | 25 | 198 | 4.8 | 8.0 | 0.00 | 0.74 | 0.74 | 83 | 1016.6 |
| 20260903143300 | 24 | 134 | 1.6 | 1.6 | 0.00 | 0.74 | 0.74 | 85 | 1016.6 |
| 20260903142756 | 24 | 129 | 4.8 | 6.4 | 0.00 | 0.74 | 0.74 | 85 | 1016.4 |
| 20260903142251 | 24 | 130 | 3.2 | 11.3 | 0.00 | 0.74 | 0.74 | 85 | 1016.3 |
| 20260903141747 | 24 | 102 | 3.2 | 6.4 | 0.00 | 0.74 | 0.74 | 87 | 1016.4 |
| 20260903141242 | 23 | 160 | 6.4 | 11.3 | 0.00 | 0.74 | 0.74 | 87 | 1016.4 |
| 20260903140737 | 23 | 141 | 8.0 | 8.0 | 0.00 | 0.74 | 0.74 | 87 | 1016.3 |
| 20260903140232 | 22 | 130 | 1.6 | 6.4 | 0.00 | 0.74 | 0.74 | 90 | 1016.5 |
| 20260903135728 | 22 | 175 | 8.0 | 11.3 | 0.00 | 0.74 | 0.74 | 90 | 1016.5 |
| 20260903135223 | 22 | 142 | 3.2 | 4.8 | 0.00 | 0.74 | 0.74 | 92 | 1016.4 |
| 20260903134721 | 22 | 130 | 4.8 | 6.4 | 0.00 | 0.74 | 0.74 | 92 | 1016.6 |
| 20260903134218 | 22 | 144 | 1.6 | 6.4 | 0.00 | 0.74 | 0.74 | 91 | 1016.4 |
| 20260903133715 | 22 | 136 | 6.4 | 8.0 | 0.00 | 0.74 | 0.74 | 91 | 1016.4 |
| 20260903133212 | 22 | 205 | 3.2 | 4.8 | 0.00 | 0.74 | 0.74 | 93 | 1016.4 |
| 20260903132711 | 22 | 138 | 4.8 | 6.4 | 0.00 | 0.74 | 0.74 | 93 | 1016.6 |
| 20260903132206 | 22 | 67 | 1.6 | 1.6 | 0.00 | 0.74 | 0.74 | 93 | 1016.5 |
| 20260903131701 | 22 | 135 | 6.4 | 6.4 | 0.00 | 0.74 | 0.74 | 93 | 1016.5 |
| 20260903131200 | 21 | 96 | 1.6 | 1.6 | 0.00 | 0.74 | 0.74 | 93 | 1016.5 |
| 20260903130655 | 21 | 120 | 1.6 | 4.8 | 0.00 | 0.74 | 0.74 | 94 | 1016.4 |
| 20260903130150 | 21 | 219 | 1.6 | 1.6 | 0.00 | 0.74 | 0.74 | 96 | 1016.5 |
| 20260903125649 | 21 | 132 | 3.2 | 6.4 | 0.00 | 0.74 | 0.74 | 96 | 1016.5 |
| 20260903125144 | 21 | 181 | 1.6 | 4.8 | 0.00 | 0.74 | 0.74 | 96 | 1016.5 |
| 20260903124643 | 21 | 233 | 0.0 | 1.6 | 0.00 | 0.74 | 0.74 | 97 | 1016.4 |
| 20260903124138 | 20 | 216 | 1.6 | 4.8 | 0.00 | 0.74 | 0.74 | 97 | 1016.5 |
| 20260903123637 | 20 | 178 | 0.0 | 0.0 | 0.00 | 0.74 | 0.74 | 97 | 1016.5 |
| 20260903123136 | 20 | 180 | 1.6 | 1.6 | 0.00 | 0.74 | 0.74 | 96 | 1016.4 |
| 20260903122630 | 20 | 123 | 1.6 | 1.6 | 0.00 | 0.74 | 0.74 | 96 | 1016.5 |
| 20260903122125 | 20 | 121 | 0.0 | 0.0 | 0.00 | 0.74 | 0.74 | 96 | 1016.3 |
| 20260903121624 | 20 | 123 | 1.6 | 4.8 | 0.00 | 0.74 | 0.74 | 96 | 1016.5 |
| 20260903121120 | 20 | 123 | 1.6 | 4.8 | 0.00 | 0.74 | 0.74 | 96 | 1016.6 |
| 20260903120619 | 20 | 92 | 0.0 | 1.6 | 0.48 | 0.74 | 0.74 | 95 | 1016.4 |
| 20260903120113 | 20 | 253 | 3.2 | 1.6 | 2.77 | 0.74 | 0.74 | 95 | 1017.2 |
| 20260903115611 | 20 | 74 | 1.6 | 1.6 | 3.48 | 0.61 | 0.61 | 93 | 1017.2 |
| 20260903115107 | 20 | 351 | 8.0 | 8.0 | 1.07 | 0.18 | 0.18 | 92 | 1018.0 |
| 20260903114602 | 20 | 7 | 3.2 | 1.6 | 0.18 | 0.03 | 0.03 | 91 | 1017.0 |
| 20260903114058 | 20 | 258 | 3.2 | 4.8 | 0.00 | 0.00 | 0.00 | 89 | 1016.6 |
| 20260903113553 | 20 | 144 | 8.0 | 8.0 | 0.00 | 0.00 | 0.00 | 89 | 1016.4 |
| 20260903113049 | 21 | 138 | 3.2 | 6.4 | 0.00 | 0.00 | 0.00 | 88 | 1016.9 |
| 20260903112544 | 20 | 20 | 0.0 | 8.0 | 0.00 | 0.00 | 0.00 | 87 | 1017.4 |
| 20260903112039 | 21 | 347 | 4.8 | 6.4 | 0.00 | 0.00 | 0.00 | 88 | 1017.3 |
| 20260903111537 | 21 | 227 | 3.2 | 4.8 | 0.00 | 0.00 | 0.00 | 86 | 1017.1 |
| 20260903111034 | 21 | 4 | 0.0 | 0.0 | 0.00 | 0.00 | 0.00 | 83 | 1017.1 |
| 20260903110530 | 21 | 16 | 6.4 | 6.4 | 0.00 | 0.00 | 0.00 | 82 | 1017.0 |
| 20260903110030 | 21 | 29 | 4.8 | 11.3 | 0.00 | 0.00 | 0.00 | 81 | 1017.1 |
| 20260903105525 | 22 | 29 | 8.0 | 11.3 | 0.00 | 0.00 | 0.00 | 80 | 1016.9 |
| 20260903105019 | 22 | 65 | 8.0 | 16.1 | 0.00 | 0.00 | 0.00 | 79 | 1016.9 |
| 20260903104514 | 22 | 37 | 9.7 | 12.9 | 0.00 | 0.00 | 0.00 | 78 | 1017.0 |
| 20260903104010 | 22 | 355 | 11.3 | 17.7 | 0.00 | 0.00 | 0.00 | 77 | 1016.6 |
| 20260903103506 | 22 | 9 | 11.3 | 19.3 | 0.00 | 0.00 | 0.00 | 78 | 1016.6 |
| 20260903103002 | 22 | 57 | 11.3 | 17.7 | 0.00 | 0.00 | 0.00 | 78 | 1017.1 |
| 20260903102457 | 22 | 69 | 17.7 | 24.1 | 0.00 | 0.00 | 0.00 | 77 | 1017.1 |
| 20260903101955 | 23 | 8 | 17.7 | 35.4 | 0.00 | 0.00 | 0.00 | 77 | 1016.7 |
| 20260903101450 | 23 | 352 | 25.7 | 29.0 | 0.00 | 0.00 | 0.00 | 77 | 1017.3 |
| 20260903100946 | 23 | 355 | 20.9 | 24.1 | 0.00 | 0.00 | 0.00 | 82 | 1017.0 |
| 20260903100441 | 23 | 14 | 17.7 | 22.5 | 0.00 | 0.00 | 0.00 | 89 | 1016.3 |
| 20260903095938 | 23 | 232 | 0.0 | 1.6 | 0.00 | 0.00 | 0.00 | 89 | 1015.9 |
| 20260903095432 | 23 | 232 | 0.0 | 1.6 | 0.00 | 0.00 | 0.00 | 89 | 1015.8 |
| 20260903094928 | 23 | 232 | 1.6 | 1.6 | 0.00 | 0.00 | 0.00 | 89 | 1015.7 |
| 20260903094427 | 23 | 231 | 0.0 | 1.6 | 0.00 | 0.00 | 0.00 | 89 | 1015.6 |
| 20260903093923 | 23 | 246 | 3.2 | 4.8 | 0.00 | 0.00 | 0.00 | 89 | 1015.3 |
| 20260903093418 | 23 | 283 | 1.6 | 1.6 | 0.00 | 0.00 | 0.00 | 89 | 1015.1 |
| 20260903092914 | 23 | 283 | 0.0 | 1.6 | 0.00 | 0.00 | 0.00 | 89 | 1014.9 |
| 20260903092408 | 23 | 283 | 0.0 | 0.0 | 0.00 | 0.00 | 0.00 | 88 | 1015.2 |
| 20260903091906 | 23 | 282 | 1.6 | 1.6 | 0.00 | 0.00 | 0.00 | 87 | 1015.3 |
| 20260903091405 | 23 | 284 | 0.0 | 0.0 | 0.00 | 0.00 | 0.00 | 86 | 1015.3 |
| 20260903090901 | 23 | 284 | 1.6 | 1.6 | 0.00 | 0.00 | 0.00 | 86 | 1015.4 |
| 20260903090356 | 23 | 284 | 0.0 | 1.6 | 0.00 | 0.00 | 0.00 | 85 | 1015.2 |
| 20260903085853 | 23 | 284 | 1.6 | 1.6 | 0.00 | 0.00 | 0.00 | 84 | 1015.3 |
| 20260903085348 | 23 | 230 | 1.6 | 1.6 | 0.00 | 0.00 | 0.00 | 84 | 1015.2 |
| 20260903084847 | 23 | 273 | 1.6 | 1.6 | 0.00 | 0.00 | 0.00 | 84 | 1015.2 |
| 20260903084346 | 23 | 278 | 0.0 | 0.0 | 0.00 | 0.00 | 0.00 | 86 | 1015.1 |
| 20260903083841 | 23 | 284 | 3.2 | 4.8 | 0.00 | 0.00 | 0.00 | 86 | 1015.0 |
| 20260903083337 | 23 | 292 | 1.6 | 1.6 | 0.00 | 0.00 | 0.00 | 86 | 1015.1 |
| 20260903082835 | 23 | 292 | 0.0 | 0.0 | 0.00 | 0.00 | 0.00 | 85 | 1015.2 |
| 20260903082331 | 23 | 292 | 1.6 | 1.6 | 0.00 | 0.00 | 0.00 | 87 | 1015.0 |
| 20260903081826 | 23 | 292 | 0.0 | 1.6 | 0.00 | 0.00 | 0.00 | 87 | 1015.1 |
| 20260903081322 | 23 | 292 | 0.0 | 1.6 | 0.00 | 0.00 | 0.00 | 88 | 1015.4 |
| 20260903080818 | 23 | 308 | 1.6 | 4.8 | 0.00 | 0.00 | 0.00 | 86 | 1015.3 |
| 20260903080315 | 23 | 352 | 0.0 | 1.6 | 0.00 | 0.00 | 0.00 | 87 | 1015.4 |
| 20260903075814 | 23 | 352 | 1.6 | 1.6 | 0.00 | 0.00 | 0.00 | 88 | 1015.3 |
| 20260903075310 | 23 | 352 | 0.0 | 0.0 | 0.00 | 0.00 | 0.00 | 87 | 1015.5 |
| 20260903074809 | 23 | 352 | 0.0 | 0.0 | 0.00 | 0.00 | 0.00 | 86 | 1015.5 |
| 20260903074304 | 23 | 352 | 0.0 | 1.6 | 0.00 | 0.00 | 0.00 | 85 | 1015.4 |
| 20260903073800 | 24 | 352 | 0.0 | 1.6 | 0.00 | 0.00 | 0.00 | 84 | 1015.5 |
| 20260903073255 | 25 | 352 | 1.6 | 1.6 | 0.00 | 0.00 | 0.00 | 81 | 1015.4 |
| 20260903072751 | 25 | 352 | 0.0 | 0.0 | 0.00 | 0.00 | 0.00 | 79 | 1015.5 |
| 20260903072247 | 25 | 352 | 0.0 | 0.0 | 0.00 | 0.00 | 0.00 | 77 | 1015.5 |
| 20260903071743 | 25 | 352 | 0.0 | 0.0 | 0.00 | 0.00 | 0.00 | 74 | 1015.4 |
| 20260903071238 | 26 | 351 | 0.0 | 1.6 | 0.00 | 0.00 | 0.00 | 74 | 1015.4 |
| 20260903070738 | 26 | 12 | 0.0 | 1.6 | 0.00 | 0.00 | 0.00 | 73 | 1015.6 |
| 20260903070234 | 26 | 334 | 3.2 | 8.0 | 0.00 | 0.00 | 0.00 | 73 | 1015.5 |
| 20260903065729 | 26 | 298 | 4.8 | 6.4 | 0.00 | 0.00 | 0.00 | 76 | 1015.6 |
| 20260903065228 | 26 | 328 | 4.8 | 8.0 | 0.00 | 0.00 | 0.00 | 76 | 1015.8 |
| 20260903064727 | 26 | 335 | 6.4 | 12.9 | 0.00 | 0.00 | 0.00 | 78 | 1015.7 |
| 20260903064223 | 26 | 344 | 3.2 | 8.0 | 0.00 | 0.00 | 0.00 | 79 | 1015.9 |
| 20260903063719 | 26 | 261 | 8.0 | 11.3 | 0.00 | 0.00 | 0.00 | 79 | 1015.8 |
| 20260903063213 | 25 | 358 | 4.8 | 6.4 | 0.00 | 0.00 | 0.00 | 80 | 1016.0 |
| 20260903062709 | 25 | 359 | 6.4 | 11.3 | 0.00 | 0.00 | 0.00 | 83 | 1016.0 |
| 20260903062204 | 25 | 32 | 1.6 | 1.6 | 0.00 | 0.00 | 0.00 | 82 | 1015.6 |
| 20260903061700 | 25 | 33 | 3.2 | 1.6 | 0.00 | 0.00 | 0.00 | 81 | 1015.3 |
| 20260903061158 | 25 | 193 | 1.6 | 1.6 | 0.00 | 0.00 | 0.00 | 80 | 1015.2 |
| 20260903060654 | 25 | 71 | 1.6 | 1.6 | 0.00 | 0.00 | 0.00 | 81 | 1015.1 |
| 20260903060143 | 25 | 331 | 0.0 | 0.0 | 0.00 | 0.00 | 0.00 | 80 | 1015.2 |
| 20260903055641 | 25 | 281 | 0.0 | 1.6 | 0.00 | 0.00 | 0.00 | 81 | 1015.2 |
| 20260903055139 | 25 | 295 | 4.8 | 6.4 | 0.00 | 0.00 | 0.00 | 81 | 1015.3 |
| 20260903054634 | 25 | 272 | 4.8 | 4.8 | 0.00 | 0.00 | 0.00 | 81 | 1015.2 |
| 20260903054130 | 25 | 239 | 3.2 | 6.4 | 0.00 | 0.00 | 0.00 | 81 | 1015.3 |
| 20260903053626 | 25 | 295 | 3.2 | 4.8 | 0.00 | 0.00 | 0.00 | 81 | 1015.4 |
| 20260903053121 | 25 | 212 | 3.2 | 4.8 | 0.00 | 0.00 | 0.00 | 81 | 1015.3 |
| 20260903052617 | 25 | 134 | 1.6 | 4.8 | 0.00 | 0.00 | 0.00 | 80 | 1015.2 |
| 20260903052112 | 26 | 214 | 0.0 | 1.6 | 0.00 | 0.00 | 0.00 | 80 | 1015.1 |
| 20260903051612 | 26 | 222 | 0.0 | 4.8 | 0.00 | 0.00 | 0.00 | 80 | 1015.0 |
| 20260903051108 | 25 | 264 | 3.2 | 1.6 | 0.00 | 0.00 | 0.00 | 81 | 1015.0 |
| 20260903050602 | 25 | 104 | 1.6 | 1.6 | 0.00 | 0.00 | 0.00 | 81 | 1014.9 |
| 20260903050057 | 25 | 203 | 1.6 | 1.6 | 0.00 | 0.00 | 0.00 | 81 | 1014.8 |
| 20260903045556 | 26 | 232 | 1.6 | 6.4 | 0.00 | 0.00 | 0.00 | 81 | 1015.0 |
| 20260903045053 | 26 | 226 | 0.0 | 1.6 | 0.00 | 0.00 | 0.00 | 80 | 1014.8 |
| 20260903044549 | 26 | 268 | 1.6 | 4.8 | 0.00 | 0.00 | 0.00 | 80 | 1015.0 |
| 20260903044044 | 26 | 191 | 1.6 | 4.8 | 0.00 | 0.00 | 0.00 | 80 | 1015.0 |
| 20260903043540 | 26 | 267 | 1.6 | 1.6 | 0.00 | 0.00 | 0.00 | 80 | 1014.6 |
| 20260903043039 | 26 | 100 | 0.0 | 1.6 | 0.00 | 0.00 | 0.00 | 80 | 1014.6 |
| 20260903042534 | 26 | 219 | 4.8 | 6.4 | 0.00 | 0.00 | 0.00 | 80 | 1014.5 |
| 20260903042029 | 26 | 207 | 0.0 | 1.6 | 0.00 | 0.00 | 0.00 | 80 | 1014.4 |
| 20260903041526 | 26 | 224 | 1.6 | 1.6 | 0.00 | 0.00 | 0.00 | 80 | 1014.5 |
| 20260903041021 | 26 | 249 | 4.8 | 4.8 | 0.00 | 0.00 | 0.00 | 81 | 1014.4 |
| 20260903040519 | 26 | 230 | 0.0 | 1.6 | 0.00 | 0.00 | 0.00 | 81 | 1014.6 |
| 20260903040017 | 26 | 248 | 3.2 | 6.4 | 0.00 | 0.00 | 0.00 | 81 | 1014.1 |
| 20260903035512 | 26 | 206 | 3.2 | 6.4 | 0.00 | 0.00 | 0.00 | 81 | 1014.2 |
| 20260903035007 | 25 | 295 | 3.2 | 6.4 | 0.00 | 0.00 | 0.00 | 83 | 1014.0 |
| 20260903034501 | 25 | 223 | 0.0 | 4.8 | 0.00 | 0.00 | 0.00 | 83 | 1013.9 |
| 20260903033956 | 25 | 231 | 0.0 | 4.8 | 0.00 | 0.00 | 0.00 | 83 | 1014.1 |
| 20260903033452 | 25 | 237 | 3.2 | 4.8 | 0.00 | 0.00 | 0.00 | 85 | 1014.1 |
| 20260903032946 | 25 | 220 | 4.8 | 4.8 | 0.00 | 0.00 | 0.00 | 85 | 1014.2 |
| 20260903032442 | 25 | 235 | 1.6 | 1.6 | 0.00 | 0.00 | 0.00 | 84 | 1014.2 |
| 20260903031937 | 25 | 218 | 3.2 | 1.6 | 0.00 | 0.00 | 0.00 | 84 | 1014.4 |
| 20260903031437 | 25 | 218 | 1.6 | 1.6 | 0.00 | 0.00 | 0.00 | 84 | 1014.3 |
| 20260903030932 | 25 | 278 | 0.0 | 1.6 | 0.00 | 0.00 | 0.00 | 84 | 1014.6 |
| 20260903030428 | 25 | 211 | 0.0 | 1.6 | 0.00 | 0.00 | 0.00 | 85 | 1014.7 |
| 20260903025924 | 25 | 213 | 1.6 | 1.6 | 0.00 | 0.00 | 0.00 | 86 | 1014.7 |
| 20260903025419 | 25 | 226 | 0.0 | 0.0 | 0.00 | 0.00 | 0.00 | 87 | 1015.2 |
| 20260903024914 | 25 | 226 | 0.0 | 0.0 | 0.00 | 0.00 | 0.00 | 87 | 1015.1 |
| 20260903024408 | 25 | 226 | 0.0 | 0.0 | 0.00 | 0.00 | 0.00 | 87 | 1015.2 |
| 20260903023903 | 25 | 226 | 0.0 | 0.0 | 0.00 | 0.00 | 0.00 | 86 | 1015.2 |
| 20260903023359 | 25 | 226 | 0.0 | 0.0 | 0.00 | 0.00 | 0.00 | 86 | 1015.2 |
| 20260903022854 | 25 | 226 | 1.6 | 1.6 | 0.00 | 0.00 | 0.00 | 86 | 1015.1 |
| 20260903022353 | 25 | 227 | 0.0 | 0.0 | 0.00 | 0.00 | 0.00 | 86 | 1015.2 |
| 20260903021851 | 25 | 227 | 0.0 | 0.0 | 0.00 | 0.00 | 0.00 | 85 | 1015.1 |
| 20260903021348 | 25 | 227 | 0.0 | 0.0 | 0.00 | 0.00 | 0.00 | 86 | 1015.1 |
| 20260903020847 | 25 | 227 | 0.0 | 1.6 | 0.00 | 0.00 | 0.00 | 86 | 1015.2 |
| 20260903020343 | 25 | 227 | 0.0 | 0.0 | 0.00 | 0.00 | 0.00 | 86 | 1015.0 |
| 20260903015837 | 25 | 227 | 0.0 | 1.6 | 0.00 | 0.00 | 0.00 | 86 | 1015.1 |
| 20260903015333 | 25 | 210 | 0.0 | 8.0 | 0.00 | 0.00 | 0.00 | 88 | 1015.1 |
| 20260903014828 | 25 | 269 | 1.6 | 1.6 | 0.00 | 0.00 | 0.00 | 88 | 1015.2 |
| 20260903014328 | 25 | 270 | 1.6 | 1.6 | 0.00 | 0.00 | 0.00 | 88 | 1015.2 |
| 20260903013823 | 25 | 270 | 0.0 | 0.0 | 0.00 | 0.00 | 0.00 | 87 | 1015.2 |
| 20260903013322 | 25 | 270 | 0.0 | 0.0 | 0.00 | 0.00 | 0.00 | 86 | 1015.3 |
| 20260903012821 | 26 | 270 | 0.0 | 0.0 | 0.00 | 0.00 | 0.00 | 85 | 1015.3 |
| 20260903012316 | 26 | 270 | 0.0 | 0.0 | 0.00 | 0.00 | 0.00 | 85 | 1015.1 |
| 20260903011815 | 26 | 270 | 0.0 | 0.0 | 0.00 | 0.00 | 0.00 | 82 | 1015.2 |
| 20260903011314 | 26 | 270 | 0.0 | 0.0 | 0.00 | 0.00 | 0.00 | 81 | 1015.4 |
| 20260903010804 | 26 | 270 | 0.0 | 0.0 | 0.00 | 0.00 | 0.00 | 80 | 1015.1 |
| 20260903010300 | 27 | 269 | 0.0 | 1.6 | 0.00 | 0.00 | 0.00 | 79 | 1015.3 |
| 20260903005758 | 27 | 269 | 1.6 | 1.6 | 0.00 | 0.00 | 0.00 | 78 | 1015.1 |
| 20260903005253 | 27 | 267 | 1.6 | 1.6 | 0.00 | 0.00 | 0.00 | 78 | 1015.2 |
| 20260903004749 | 27 | 298 | 0.0 | 0.0 | 0.00 | 0.00 | 0.00 | 77 | 1015.3 |
| 20260903004244 | 27 | 298 | 0.0 | 0.0 | 0.00 | 0.00 | 0.00 | 78 | 1015.2 |
| 20260903003740 | 27 | 298 | 0.0 | 0.0 | 0.00 | 0.00 | 0.00 | 77 | 1015.0 |
| 20260903003235 | 27 | 40 | 0.0 | 1.6 | 0.00 | 0.00 | 0.00 | 77 | 1014.9 |
| 20260903002729 | 28 | 335 | 0.0 | 0.0 | 0.00 | 0.00 | 0.00 | 74 | 1015.0 |
| 20260903002223 | 28 | 336 | 0.0 | 0.0 | 0.00 | 0.00 | 0.00 | 72 | 1014.9 |
| 20260903001719 | 28 | 336 | 0.0 | 0.0 | 0.00 | 0.00 | 0.00 | 71 | 1014.8 |
| 20260903001213 | 28 | 336 | 0.0 | 0.0 | 0.00 | 0.00 | 0.00 | 70 | 1014.7 |
| 20260903000708 | 28 | 333 | 1.6 | 1.6 | 0.00 | 0.00 | 0.00 | 69 | 1014.6 |
| 20260903000208 | 28 | 241 | 0.0 | 6.4 | 0.00 | 0.00 | 0.00 | 70 | 1014.4 |
| 20260902235706 | 28 | 167 | 1.6 | 4.8 | 0.00 | 0.00 | 0.00 | 70 | 1014.2 |
| 20260902235202 | 29 | 201 | 0.0 | 1.6 | 0.00 | 0.00 | 0.00 | 68 | 1014.4 |
| 20260902234701 | 29 | 191 | 0.0 | 1.6 | 0.00 | 0.00 | 0.00 | 68 | 1014.6 |
| 20260902234200 | 29 | 180 | 1.6 | 1.6 | 0.00 | 0.00 | 0.00 | 67 | 1014.6 |
| 20260902233655 | 29 | 219 | 3.2 | 4.8 | 0.00 | 0.00 | 0.00 | 66 | 1014.8 |
| 20260902233155 | 30 | 164 | 1.6 | 4.8 | 0.00 | 0.00 | 0.00 | 66 | 1014.8 |
| 20260902232654 | 30 | 223 | 3.2 | 4.8 | 0.00 | 0.00 | 0.00 | 64 | 1014.7 |
| 20260902232153 | 30 | 139 | 1.6 | 1.6 | 0.00 | 0.00 | 0.00 | 63 | 1014.6 |
| 20260902231647 | 30 | 189 | 1.6 | 1.6 | 0.00 | 0.00 | 0.00 | 63 | 1014.8 |
| 20260902231142 | 30 | 222 | 1.6 | 4.8 | 0.00 | 0.00 | 0.00 | 62 | 1014.8 |
| 20260902230638 | 30 | 313 | 1.6 | 1.6 | 0.00 | 0.00 | 0.00 | 61 | 1014.7 |
| 20260902230136 | 31 | 150 | 0.0 | 4.8 | 0.00 | 0.00 | 0.00 | 61 | 1014.8 |
| 20260902225632 | 31 | 218 | 6.4 | 6.4 | 0.00 | 0.00 | 0.00 | 60 | 1014.9 |
| 20260902225131 | 31 | 227 | 4.8 | 6.4 | 0.00 | 0.00 | 0.00 | 61 | 1014.9 |
| 20260902224630 | 31 | 269 | 6.4 | 8.0 | 0.00 | 0.00 | 0.00 | 59 | 1014.7 |
| 20260902224126 | 31 | 221 | 3.2 | 12.9 | 0.00 | 0.00 | 0.00 | 58 | 1014.7 |
| 20260902223622 | 32 | 95 | 1.6 | 4.8 | 0.00 | 0.00 | 0.00 | 59 | 1014.9 |
| 20260902223121 | 32 | 270 | 3.2 | 4.8 | 0.00 | 0.00 | 0.00 | 58 | 1014.9 |
| 20260902222622 | 32 | 311 | 1.6 | 4.8 | 0.00 | 0.00 | 0.00 | 57 | 1014.8 |
| 20260902222119 | 32 | 248 | 1.6 | 6.4 | 0.00 | 0.00 | 0.00 | 56 | 1014.8 |
| 20260902221613 | 32 | 195 | 1.6 | 6.4 | 0.00 | 0.00 | 0.00 | 56 | 1014.7 |
| 20260902221108 | 32 | 259 | 1.6 | 1.6 | 0.00 | 0.00 | 0.00 | 56 | 1014.5 |
| 20260902220604 | 32 | 259 | 6.4 | 8.0 | 0.00 | 0.00 | 0.00 | 55 | 1014.6 |
| 20260902220058 | 32 | 227 | 3.2 | 8.0 | 0.00 | 0.00 | 0.00 | 56 | 1014.6 |
| 20260902215554 | 32 | 258 | 4.8 | 8.0 | 0.00 | 0.00 | 0.00 | 56 | 1014.5 |
| 20260902215050 | 32 | 339 | 8.0 | 11.3 | 0.00 | 0.00 | 0.00 | 56 | 1014.4 |
| 20260902214550 | 32 | 188 | 4.8 | 11.3 | 0.00 | 0.00 | 0.00 | 56 | 1014.5 |
| 20260902214049 | 33 | 244 | 3.2 | 8.0 | 0.00 | 0.00 | 0.00 | 57 | 1014.5 |
| 20260902213545 | 33 | 240 | 4.8 | 6.4 | 0.00 | 0.00 | 0.00 | 54 | 1014.5 |
| 20260902213044 | 33 | 324 | 1.6 | 4.8 | 0.00 | 0.00 | 0.00 | 56 | 1014.6 |
| 20260902212539 | 33 | 288 | 3.2 | 11.3 | 0.00 | 0.00 | 0.00 | 57 | 1014.7 |
| 20260902212036 | 33 | 248 | 4.8 | 12.9 | 0.00 | 0.00 | 0.00 | 55 | 1014.7 |
| 20260902211532 | 33 | 212 | 3.2 | 11.3 | 0.00 | 0.00 | 0.00 | 55 | 1014.7 |
| 20260902211027 | 33 | 278 | 3.2 | 4.8 | 0.00 | 0.00 | 0.00 | 53 | 1015.0 |
| 20260902210527 | 33 | 329 | 3.2 | 6.4 | 0.00 | 0.00 | 0.00 | 54 | 1015.0 |
| 20260902210026 | 33 | 280 | 6.4 | 16.1 | 0.00 | 0.00 | 0.00 | 52 | 1015.0 |
| 20260902205520 | 33 | 251 | 14.5 | 19.3 | 0.00 | 0.00 | 0.00 | 51 | 1015.4 |
| 20260902205016 | 33 | 190 | 11.3 | 12.9 | 0.00 | 0.00 | 0.00 | 51 | 1015.4 |
| 20260902204515 | 32 | 207 | 4.8 | 16.1 | 0.00 | 0.00 | 0.00 | 54 | 1015.3 |
| 20260902204011 | 33 | 234 | 6.4 | 8.0 | 0.00 | 0.00 | 0.00 | 52 | 1015.1 |
| 20260902203506 | 33 | 115 | 0.0 | 11.3 | 0.00 | 0.00 | 0.00 | 52 | 1015.0 |
| 20260902203005 | 33 | 309 | 4.8 | 6.4 | 0.00 | 0.00 | 0.00 | 51 | 1015.4 |
| 20260902202501 | 33 | 226 | 4.8 | 8.0 | 0.00 | 0.00 | 0.00 | 55 | 1015.2 |
| 20260902201958 | 33 | 200 | 6.4 | 11.3 | 0.00 | 0.00 | 0.00 | 53 | 1015.3 |
| 20260902201457 | 33 | 246 | 4.8 | 16.1 | 0.00 | 0.00 | 0.00 | 51 | 1015.4 |
| 20260902200952 | 34 | 226 | 6.4 | 19.3 | 0.00 | 0.00 | 0.00 | 50 | 1015.3 |
| 20260902200447 | 34 | 281 | 6.4 | 11.3 | 0.00 | 0.00 | 0.00 | 51 | 1015.4 |
| 20260902195943 | 33 | 171 | 6.4 | 11.3 | 0.00 | 0.00 | 0.00 | 51 | 1015.5 |
| 20260902195438 | 33 | 140 | 3.2 | 12.9 | 0.00 | 0.00 | 0.00 | 53 | 1015.6 |
| 20260902194938 | 34 | 248 | 8.0 | 16.1 | 0.00 | 0.00 | 0.00 | 50 | 1015.6 |
| 20260902194437 | 33 | 191 | 4.8 | 6.4 | 0.00 | 0.00 | 0.00 | 49 | 1015.4 |
| 20260902193932 | 34 | 143 | 8.0 | 8.0 | 0.00 | 0.00 | 0.00 | 49 | 1015.7 |
| 20260902193428 | 35 | 160 | 3.2 | 6.4 | 0.00 | 0.00 | 0.00 | 48 | 1015.7 |
| 20260902192927 | 34 | 213 | 3.2 | 6.4 | 0.00 | 0.00 | 0.00 | 51 | 1015.7 |
| 20260902192426 | 34 | 65 | 3.2 | 6.4 | 0.00 | 0.00 | 0.00 | 48 | 1015.7 |
| 20260902191925 | 33 | 211 | 3.2 | 6.4 | 0.00 | 0.00 | 0.00 | 48 | 1015.8 |
| 20260902191421 | 34 | 276 | 8.0 | 12.9 | 0.00 | 0.00 | 0.00 | 49 | 1015.9 |
| 20260902190916 | 34 | 241 | 1.6 | 4.8 | 0.00 | 0.00 | 0.00 | 49 | 1015.9 |
| 20260902190411 | 34 | 282 | 8.0 | 8.0 | 0.00 | 0.00 | 0.00 | 49 | 1016.0 |
| 20260902185906 | 33 | 312 | 1.6 | 1.6 | 0.00 | 0.00 | 0.00 | 53 | 1016.1 |
| 20260902185402 | 33 | 248 | 6.4 | 11.3 | 0.00 | 0.00 | 0.00 | 49 | 1016.0 |
| 20260902184857 | 33 | 217 | 8.0 | 8.0 | 0.00 | 0.00 | 0.00 | 51 | 1016.1 |
| 20260902184352 | 33 | 246 | 9.7 | 11.3 | 0.00 | 0.00 | 0.00 | 49 | 1016.2 |
| 20260902183848 | 33 | 349 | 1.6 | 6.4 | 0.00 | 0.00 | 0.00 | 52 | 1016.4 |
| 20260902183344 | 33 | 221 | 4.8 | 6.4 | 0.00 | 0.00 | 0.00 | 53 | 1016.4 |
| 20260902182834 | 32 | 257 | 6.4 | 11.3 | 0.00 | 0.00 | 0.00 | 53 | 1016.1 |
| 20260902182330 | 33 | 250 | 9.7 | 12.9 | 0.00 | 0.00 | 0.00 | 52 | 1016.2 |
| 20260902181826 | 32 | 103 | 3.2 | 11.3 | 0.00 | 0.00 | 0.00 | 55 | 1016.3 |
| 20260902181322 | 32 | 259 | 4.8 | 8.0 | 0.00 | 0.00 | 0.00 | 55 | 1016.5 |
| 20260902180816 | 33 | 185 | 8.0 | 11.3 | 0.00 | 0.00 | 0.00 | 54 | 1016.4 |
| 20260902180312 | 33 | 327 | 1.6 | 6.4 | 0.00 | 0.00 | 0.00 | 54 | 1016.5 |
| 20260902175807 | 32 | 211 | 8.0 | 8.0 | 0.00 | 0.00 | 0.00 | 54 | 1016.9 |
| 20260902175307 | 32 | 266 | 11.3 | 12.9 | 0.00 | 0.00 | 0.00 | 54 | 1017.0 |
| 20260902174757 | 32 | 288 | 3.2 | 8.0 | 0.00 | 0.00 | 0.00 | 59 | 1017.1 |
| 20260902174253 | 32 | 178 | 4.8 | 12.9 | 0.00 | 0.00 | 0.00 | 59 | 1017.1 |
| 20260902173749 | 33 | 252 | 6.4 | 6.4 | 0.00 | 0.00 | 0.00 | 56 | 1016.9 |
| 20260902173243 | 32 | 113 | 3.2 | 4.8 | 0.00 | 0.00 | 0.00 | 62 | 1017.1 |
| 20260902172737 | 32 | 154 | 4.8 | 6.4 | 0.00 | 0.00 | 0.00 | 62 | 1017.2 |
| 20260902172232 | 32 | 217 | 1.6 | 4.8 | 0.00 | 0.00 | 0.00 | 64 | 1017.2 |
| 20260902171727 | 31 | 278 | 4.8 | 8.0 | 0.00 | 0.00 | 0.00 | 62 | 1017.4 |
| 20260902171222 | 31 | 269 | 4.8 | 8.0 | 0.00 | 0.00 | 0.00 | 63 | 1017.4 |
| 20260902170718 | 31 | 228 | 4.8 | 8.0 | 0.00 | 0.00 | 0.00 | 63 | 1017.3 |
| 20260902170213 | 31 | 196 | 1.6 | 8.0 | 0.00 | 0.00 | 0.00 | 64 | 1017.4 |
| 20260902165708 | 31 | 268 | 8.0 | 11.3 | 0.00 | 0.00 | 0.00 | 62 | 1017.2 |
| 20260902165203 | 31 | 118 | 4.8 | 11.3 | 0.00 | 0.00 | 0.00 | 67 | 1017.3 |
| 20260902164658 | 31 | 261 | 1.6 | 1.6 | 0.00 | 0.00 | 0.00 | 64 | 1017.3 |
| 20260902164156 | 31 | 173 | 1.6 | 11.3 | 0.00 | 0.00 | 0.00 | 64 | 1017.2 |
| 20260902163652 | 31 | 246 | 6.4 | 12.9 | 0.00 | 0.00 | 0.00 | 64 | 1017.3 |
| 20260902163152 | 31 | 221 | 3.2 | 6.4 | 0.00 | 0.00 | 0.00 | 66 | 1017.4 |
| 20260902162650 | 31 | 244 | 8.0 | 11.3 | 0.00 | 0.00 | 0.00 | 65 | 1017.5 |
| 20260902162145 | 31 | 184 | 4.8 | 12.9 | 0.00 | 0.00 | 0.00 | 64 | 1017.4 |
| 20260902161640 | 31 | 281 | 8.0 | 8.0 | 0.00 | 0.00 | 0.00 | 64 | 1017.5 |
| 20260902161136 | 30 | 309 | 1.6 | 4.8 | 0.00 | 0.00 | 0.00 | 65 | 1017.6 |
| 20260902160632 | 30 | 266 | 4.8 | 6.4 | 0.00 | 0.00 | 0.00 | 66 | 1017.6 |
| 20260902160127 | 31 | 276 | 11.3 | 12.9 | 0.00 | 0.00 | 0.00 | 65 | 1017.6 |
| 20260902155625 | 30 | 256 | 4.8 | 6.4 | 0.00 | 0.00 | 0.00 | 66 | 1017.8 |
| 20260902155124 | 30 | 220 | 3.2 | 6.4 | 0.00 | 0.00 | 0.00 | 68 | 1017.7 |
| 20260902154619 | 31 | 301 | 8.0 | 8.0 | 0.00 | 0.00 | 0.00 | 65 | 1017.9 |
| 20260902154114 | 30 | 237 | 3.2 | 8.0 | 0.00 | 0.00 | 0.00 | 67 | 1017.9 |
| 20260902153613 | 30 | 121 | 1.6 | 4.8 | 0.00 | 0.00 | 0.00 | 67 | 1017.7 |
| 20260902153109 | 30 | 262 | 8.0 | 8.0 | 0.00 | 0.00 | 0.00 | 68 | 1017.6 |
| 20260902152605 | 30 | 267 | 6.4 | 6.4 | 0.00 | 0.00 | 0.00 | 71 | 1017.9 |
| 20260902152100 | 30 | 239 | 8.0 | 12.9 | 0.00 | 0.00 | 0.00 | 69 | 1017.8 |
| 20260902151556 | 30 | 65 | 0.0 | 1.6 | 0.00 | 0.00 | 0.00 | 70 | 1017.8 |
| 20260902151055 | 30 | 208 | 4.8 | 8.0 | 0.00 | 0.00 | 0.00 | 69 | 1017.8 |
| 20260902150550 | 29 | 280 | 3.2 | 8.0 | 0.00 | 0.00 | 0.00 | 70 | 1017.8 |